EW4276 Weather Reports


Display with metric or nautical units.
time (UTC)temp
F
wind
direction
speed
MPH
gust
MPH
rain 1hr
in
rain 24hr
in
rain mn
in
humidity
%
barometer
mb
20260902204314 83 161 8.0 12.0 0.00 0.00 0.00 71 1018.3
20260902203826 83 162 4.0 10.0 0.00 0.00 0.00 70 1018.2
20260902203318 83 169 3.0 16.0 0.00 0.00 0.00 71 1018.1
20260902202830 83 175 8.0 16.0 0.00 0.00 0.00 70 1018.3
20260902202322 83 180 6.0 13.0 0.00 0.00 0.00 72 1018.3
20260902201813 83 167 8.0 11.0 0.00 0.00 0.00 70 1018.4
20260902201330 83 146 4.0 10.0 0.00 0.00 0.00 70 1018.2
20260902200822 83 194 6.0 12.0 0.00 0.00 0.00 69 1018.3
20260902200353 83 274 6.0 14.0 0.00 0.00 0.00 71 1018.5
20260902195822 82 150 7.0 14.0 0.00 0.00 0.00 71 1018.6
20260902195314 82 131 7.0 13.0 0.00 0.00 0.00 71 1018.8
20260902194826 83 153 7.0 13.0 0.00 0.00 0.00 70 1018.8
20260902194318 83 66 1.0 9.0 0.00 0.00 0.00 74 1018.7
20260902193829 82 143 2.0 9.0 0.00 0.00 0.00 77 1018.6
20260902193320 81 155 2.0 9.0 0.00 0.00 0.00 78 1018.6
20260902192816 81 314 2.0 9.0 0.00 0.00 0.00 77 1018.4
20260902192328 80 51 3.0 10.0 0.00 0.00 0.00 76 1018.3
20260902191820 80 51 5.0 12.0 0.00 0.00 0.00 76 1018.1
20260902191332 81 47 5.0 12.0 0.00 0.00 0.00 76 1018.1
20260902190823 80 30 6.0 11.0 0.00 0.00 0.00 76 1018.2
20260902190314 81 26 6.0 11.0 0.00 0.00 0.00 78 1018.4
20260902185825 81 24 3.0 7.0 0.00 0.00 0.00 77 1018.5
20260902185337 80 28 2.0 9.0 0.00 0.00 0.00 79 1018.5
20260902184828 80 28 2.0 9.0 0.00 0.00 0.00 79 1018.6
20260902184344 79 69 2.0 11.0 0.00 0.00 0.00 82 1018.5
20260902183814 79 74 4.0 11.0 0.00 0.00 0.00 79 1019.0
20260902183325 79 69 4.0 11.0 0.00 0.00 0.00 82 1018.9
20260902182838 79 360 5.0 11.0 0.00 0.00 0.00 82 1019.1
20260902182329 78 46 5.0 13.0 0.00 0.00 0.00 84 1019.2
20260902181842 77 47 5.0 13.0 0.00 0.00 0.00 84 1019.8
20260902181353 79 27 9.0 13.0 0.00 0.00 0.00 80 1019.8
20260902180824 80 59 6.0 19.0 0.00 0.00 0.00 77 1019.3
20260902180315 82 38 12.0 19.0 0.00 0.00 0.00 73 1019.1
20260902175848 85 33 8.0 14.0 0.00 0.00 0.00 67 1019.1
20260902175319 89 30 6.0 13.0 0.00 0.00 0.00 62 1019.1
20260902174815 91 15 3.0 7.0 0.00 0.00 0.00 59 1018.9
20260902174326 91 313 2.0 7.0 0.00 0.00 0.00 59 1018.7
20260902173818 91 89 1.0 3.0 0.00 0.00 0.00 58 1018.7
20260902173330 91 161 0.0 5.0 0.00 0.00 0.00 58 1018.9
20260902172822 91 200 1.0 5.0 0.00 0.00 0.00 58 1019.0
20260902172314 91 269 0.0 2.0 0.00 0.00 0.00 59 1019.1
20260902171846 91 69 0.0 4.0 0.00 0.00 0.00 60 1019.3
20260902171337 91 63 3.0 4.0 0.00 0.00 0.00 58 1019.3
20260902170828 90 292 1.0 4.0 0.00 0.00 0.00 61 1019.4
20260902170324 89 246 0.0 7.0 0.00 0.00 0.00 62 1019.4
20260902165814 89 292 2.0 6.0 0.00 0.00 0.00 61 1019.5
20260902165326 89 286 2.0 7.0 0.00 0.00 0.00 63 1019.6
20260902164818 89 278 1.0 5.0 0.00 0.00 0.00 62 1019.6
20260902164330 89 98 0.0 8.0 0.00 0.00 0.00 62 1019.6
20260902163821 89 271 2.0 8.0 0.00 0.00 0.00 62 1019.6
20260902163313 89 92 1.0 7.0 0.00 0.00 0.00 63 1019.6
20260902162825 89 277 4.0 7.0 0.00 0.00 0.00 62 1019.6
20260902162337 89 158 2.0 5.0 0.00 0.00 0.00 61 1019.6
20260902161831 89 115 2.0 8.0 0.00 0.00 0.00 60 1019.8
20260902161323 90 36 3.0 8.0 0.00 0.00 0.00 61 1019.7
20260902160815 91 284 3.0 8.0 0.00 0.00 0.00 60 1019.7
20260902160327 90 71 3.0 8.0 0.00 0.00 0.00 61 1019.6
20260902155818 90 281 5.0 8.0 0.00 0.00 0.00 61 1019.6
20260902155330 90 299 2.0 7.0 0.00 0.00 0.00 61 1019.5
20260902154822 90 148 2.0 6.0 0.00 0.00 0.00 61 1019.4
20260902154333 90 94 2.0 5.0 0.00 0.00 0.00 62 1019.4
20260902153829 90 161 1.0 5.0 0.00 0.00 0.00 63 1019.5
20260902153321 90 143 3.0 7.0 0.00 0.00 0.00 62 1019.6
20260902152832 90 82 2.0 7.0 0.00 0.00 0.00 64 1019.5
20260902152322 89 174 2.0 8.0 0.00 0.00 0.00 64 1019.5
20260902151814 89 84 3.0 8.0 0.00 0.00 0.00 64 1019.5
20260902151326 89 173 1.0 5.0 0.00 0.00 0.00 64 1019.5
20260902150817 88 170 1.0 5.0 0.00 0.00 0.00 65 1019.5
20260902150350 88 305 0.0 7.0 0.00 0.00 0.00 66 1019.4
20260902145818 87 138 2.0 7.0 0.00 0.00 0.00 65 1019.4
20260902145314 87 19 2.0 6.0 0.00 0.00 0.00 67 1019.4
20260902144825 87 170 2.0 8.0 0.00 0.00 0.00 67 1019.4
20260902144337 87 153 3.0 8.0 0.00 0.00 0.00 67 1019.4
20260902143827 86 165 1.0 5.0 0.00 0.00 0.00 68 1019.3
20260902143319 86 161 0.0 5.0 0.00 0.00 0.00 69 1019.3
20260902142831 85 179 2.0 5.0 0.00 0.00 0.00 69 1019.4
20260902142324 85 166 2.0 5.0 0.00 0.00 0.00 69 1019.3
20260902141816 84 172 1.0 5.0 0.00 0.00 0.00 71 1019.4
20260902141328 84 180 2.0 5.0 0.00 0.00 0.00 71 1019.3
20260902140824 83 173 1.0 4.0 0.00 0.00 0.00 72 1019.3
20260902140337 83 178 3.0 5.0 0.00 0.00 0.00 71 1019.3
20260902135827 83 174 2.0 5.0 0.00 0.00 0.00 72 1019.2
20260902135319 83 188 2.0 5.0 0.00 0.00 0.00 72 1019.2
20260902134853 83 173 2.0 6.0 0.00 0.00 0.00 72 1019.2
20260902134345 83 176 2.0 6.0 0.00 0.00 0.00 71 1019.3
20260902133816 83 170 2.0 7.0 0.00 0.00 0.00 71 1019.4
20260902133327 83 169 2.0 7.0 0.00 0.00 0.00 72 1019.3
20260902132315 82 165 3.0 7.0 0.00 0.00 0.00 72 1019.2
20260902131848 81 192 5.0 7.0 0.00 0.00 0.00 73 1019.2
20260902131319 81 161 3.0 7.0 0.00 0.00 0.00 74 1019.2
20260902130831 81 184 3.0 7.0 0.00 0.00 0.00 74 1019.3
20260902130325 80 167 3.0 7.0 0.00 0.00 0.00 74 1019.3
20260902125815 80 168 4.0 7.0 0.00 0.00 0.00 74 1019.3
20260902125327 80 178 4.0 6.0 0.00 0.00 0.00 75 1019.3
20260902124819 79 171 3.0 6.0 0.00 0.00 0.00 76 1019.2
20260902124331 79 178 3.0 6.0 0.00 0.00 0.00 76 1019.2
20260902123827 79 171 3.0 7.0 0.00 0.00 0.00 76 1019.1
20260902123319 78 171 3.0 6.0 0.00 0.00 0.00 77 1019.0
20260902122831 78 169 4.0 7.0 0.00 0.00 0.00 77 1019.0
20260902122322 78 161 3.0 6.0 0.00 0.00 0.00 77 1019.1
20260902121814 78 169 2.0 4.0 0.00 0.00 0.00 77 1019.0
20260902121326 77 169 2.0 4.0 0.00 0.00 0.00 77 1019.0
20260902120818 77 169 1.0 3.0 0.00 0.00 0.00 78 1019.0
20260902120332 77 170 0.0 2.0 0.00 0.00 0.00 79 1019.0
20260902115825 76 176 0.0 1.0 0.00 0.00 0.00 79 1018.9
20260902115337 76 165 0.0 0.0 0.00 0.00 0.00 80 1018.9
20260902114828 76 165 0.0 0.0 0.00 0.00 0.00 80 1018.9
20260902114340 75 170 0.0 0.0 0.00 0.00 0.00 81 1018.9
20260902113832 75 170 0.0 0.0 0.00 0.00 0.00 81 1018.9
20260902113324 74 171 0.0 0.0 0.00 0.00 0.00 81 1019.0
20260902112815 74 171 0.0 0.0 0.00 0.00 0.00 81 1018.9
20260902112327 74 171 0.0 0.0 0.00 0.00 0.00 81 1018.9
20260902111819 74 171 0.0 2.0 0.00 0.00 0.00 81 1019.0
20260902111315 74 171 0.0 2.0 0.00 0.00 0.00 82 1019.0
20260902110827 74 170 0.0 1.0 0.00 0.00 0.00 82 1019.0
20260902110318 74 169 0.0 0.0 0.00 0.00 0.00 81 1019.1
20260902105828 75 170 0.0 2.0 0.00 0.00 0.00 80 1019.0
20260902105321 75 170 0.0 2.0 0.00 0.00 0.00 80 1019.1
20260902104832 75 170 0.0 1.0 0.00 0.00 0.00 80 1019.1
20260902104325 75 169 0.0 4.0 0.00 0.00 0.00 80 1019.2
20260902103816 75 171 1.0 4.0 0.00 0.00 0.00 80 1019.0
20260902103329 75 185 0.0 3.0 0.00 0.00 0.00 79 1019.0
20260902102825 75 180 0.0 4.0 0.00 0.00 0.00 79 1019.0
20260902102317 75 173 0.0 4.0 0.00 0.00 0.00 79 1019.0
20260902101830 75 176 1.0 4.0 0.00 0.00 0.00 79 1018.9
20260902101320 75 158 1.0 5.0 0.00 0.00 0.00 78 1019.0
20260902100832 75 151 2.0 5.0 0.00 0.00 0.00 78 1018.9
20260902100324 75 165 0.0 5.0 0.00 0.00 0.00 77 1018.9
20260902095813 76 176 0.0 3.0 0.00 0.00 0.00 77 1018.9
20260902095327 76 174 1.0 4.0 0.00 0.00 0.00 77 1018.7
20260902094822 76 174 2.0 5.0 0.00 0.00 0.00 77 1018.7
20260902094313 76 175 3.0 5.0 0.00 0.00 0.00 77 1018.8
20260902093826 76 171 1.0 4.0 0.00 0.00 0.00 77 1018.8
20260902093318 76 179 1.0 4.0 0.00 0.00 0.00 77 1018.7
20260902092830 76 172 0.0 3.0 0.00 0.00 0.00 77 1018.9
20260902092321 76 171 0.0 2.0 0.00 0.00 0.00 77 1018.9
20260902091853 76 169 0.0 3.0 0.00 0.00 0.00 77 1018.9
20260902091343 76 168 1.0 3.0 0.00 0.00 0.00 76 1018.9
20260902090814 76 180 1.0 2.0 0.00 0.00 0.00 76 1018.8
20260902090329 76 131 1.0 2.0 0.00 0.00 0.00 75 1019.0
20260902085819 76 170 0.0 2.0 0.00 0.00 0.00 75 1018.9
20260902085331 77 172 0.0 2.0 0.00 0.00 0.00 75 1018.9
20260902084823 77 171 1.0 4.0 0.00 0.00 0.00 74 1018.8
20260902084316 77 178 2.0 6.0 0.00 0.00 0.00 75 1018.7
20260902083848 76 180 3.0 6.0 0.00 0.00 0.00 75 1018.7
20260902083317 76 174 2.0 4.0 0.00 0.00 0.00 75 1018.7
20260902082829 76 166 2.0 4.0 0.00 0.00 0.00 76 1018.8
20260902082321 76 171 2.0 4.0 0.00 0.00 0.00 76 1018.7
20260902081837 76 173 2.0 6.0 0.00 0.00 0.00 77 1018.7
20260902081327 76 180 4.0 6.0 0.00 0.00 0.00 77 1018.6
20260902080325 76 180 3.0 6.0 0.00 0.00 0.00 78 1018.6
20260902075814 76 176 3.0 6.0 0.00 0.00 0.00 77 1018.5
20260902075326 76 173 1.0 4.0 0.00 0.00 0.00 77 1018.6
20260902074818 76 165 1.0 4.0 0.00 0.00 0.00 77 1018.7
20260902074330 76 177 1.0 4.0 0.00 0.00 0.00 76 1018.6
20260902073821 77 163 0.0 3.0 0.00 0.00 0.00 76 1018.6
20260902073316 77 113 0.0 3.0 0.00 0.00 0.00 75 1018.6
20260902072829 77 169 0.0 2.0 0.00 0.00 0.00 75 1018.6
20260902072320 77 163 0.0 3.0 0.00 0.00 0.00 74 1018.5
20260902071852 77 20 0.0 3.0 0.00 0.00 0.00 73 1018.5
20260902071342 78 131 0.0 1.0 0.00 0.00 0.00 73 1018.4
20260902070833 78 167 0.0 1.0 0.00 0.00 0.00 72 1018.4
20260902070325 78 119 0.0 0.0 0.00 0.00 0.00 73 1018.3
20260902065814 78 119 0.0 0.0 0.00 0.00 0.00 72 1018.3
20260902064818 78 119 0.0 1.0 0.00 0.00 0.00 73 1018.4
20260902064314 77 119 0.0 0.0 0.00 0.00 0.00 73 1018.5
20260902063826 77 119 0.0 0.0 0.00 0.00 0.00 74 1018.6
20260902063317 77 119 0.0 0.0 0.00 0.00 0.00 74 1018.6
20260902062829 77 119 0.0 0.0 0.00 0.00 0.00 74 1018.7
20260902062321 77 65 0.0 0.0 0.00 0.00 0.00 74 1018.6
20260902061832 77 65 0.0 1.0 0.00 0.00 0.00 74 1018.7
20260902061324 77 67 0.0 1.0 0.00 0.00 0.00 73 1018.7
20260902060816 78 67 0.0 0.0 0.00 0.00 0.00 73 1018.8
20260902060332 77 71 0.0 0.0 0.00 0.00 0.00 72 1018.9
20260902055821 78 68 0.0 0.0 0.00 0.00 0.00 72 1019.0
20260902055315 77 68 0.0 0.0 0.00 0.00 0.00 72 1018.9
20260902054826 78 68 0.0 0.0 0.00 0.00 0.00 72 1018.9
20260902054318 78 68 0.0 0.0 0.00 0.00 0.00 71 1019.0
20260902053830 78 67 0.0 0.0 0.00 0.00 0.00 71 1019.0
20260902053343 78 67 0.0 0.0 0.00 0.00 0.00 71 1019.0
20260902052814 78 67 0.0 0.0 0.00 0.00 0.00 71 1019.0
20260902052326 79 67 0.0 0.0 0.00 0.00 0.00 71 1019.0
20260902051821 79 67 0.0 0.0 0.00 0.00 0.00 71 1019.0
20260902051313 79 67 0.0 0.0 0.00 0.00 0.00 71 1019.0
20260902050845 79 67 0.0 1.0 0.00 0.00 0.00 71 1018.9
20260902050316 78 67 0.0 2.0 0.00 0.00 0.00 71 1018.9
20260902045846 78 67 0.0 2.0 0.00 0.00 0.00 71 1019.0
20260902045317 78 94 0.0 1.0 0.00 0.00 0.00 72 1019.0
20260902044849 78 94 0.0 1.0 0.00 0.00 0.00 73 1019.0
20260902044319 77 94 0.0 1.0 0.00 0.00 0.00 73 1018.9
20260902043832 77 173 0.0 0.0 0.00 0.00 0.00 73 1018.9
20260902043324 78 173 0.0 0.0 0.00 0.00 0.00 72 1018.8
20260902042840 78 173 0.0 0.0 0.00 0.00 0.00 72 1018.7
20260902042331 78 172 0.0 2.0 0.00 0.00 0.00 73 1018.7
20260902041823 78 180 0.0 3.0 0.00 0.00 0.00 72 1018.6
20260902041316 78 165 0.0 1.0 0.00 0.00 0.00 71 1018.4
20260902040847 79 165 0.0 1.0 0.00 0.00 0.00 70 1018.3
20260902040338 79 62 0.0 0.0 0.00 0.00 0.00 70 1018.2
20260902035827 79 62 0.0 4.0 0.00 0.00 0.00 69 1018.1
20260902035319 79 48 0.0 4.0 0.00 0.00 0.00 69 1018.0
20260902034831 79 9 0.0 3.0 0.00 0.00 0.00 70 1017.9
20260902034323 78 301 0.0 0.0 0.00 0.00 0.00 71 1017.8
20260902033838 78 47 0.0 0.0 0.00 0.00 0.00 71 1017.7
20260902033330 78 130 0.0 0.0 0.00 0.00 0.00 72 1017.7
20260902032822 78 130 0.0 0.0 0.00 0.00 0.00 72 1017.7
20260902032314 78 130 0.0 0.0 0.00 0.00 0.00 71 1017.8
20260902031826 78 130 0.0 0.0 0.00 0.00 0.00 71 1017.7
20260902031318 78 130 0.0 0.0 0.00 0.00 0.00 71 1017.8
20260902030830 78 130 0.0 0.0 0.00 0.00 0.00 71 1017.8
20260902030321 78 130 0.0 0.0 0.00 0.00 0.00 71 1017.6
20260902025815 78 130 0.0 0.0 0.00 0.00 0.00 71 1017.6
20260902025348 79 130 0.0 0.0 0.00 0.00 0.00 71 1017.5
20260902024818 79 130 0.0 0.0 0.00 0.00 0.00 70 1017.4
20260902024331 79 130 0.0 0.0 0.00 0.00 0.00 70 1017.5
20260902023844 79 125 0.0 0.0 0.00 0.00 0.00 70 1017.6
20260902023314 80 123 0.0 0.0 0.00 0.00 0.00 70 1017.6
20260902022827 80 123 0.0 0.0 0.00 0.00 0.00 69 1017.6
20260902022319 80 101 0.0 0.0 0.00 0.00 0.00 69 1017.7
20260902021851 80 103 0.0 2.0 0.00 0.00 0.00 68 1017.9
20260902021342 80 111 0.0 3.0 0.00 0.00 0.00 68 1018.0
20260902020833 80 155 1.0 3.0 0.00 0.00 0.00 68 1017.9
20260902020329 80 153 1.0 5.0 0.00 0.00 0.00 68 1017.8
20260902015819 80 137 1.0 6.0 0.00 0.00 0.00 68 1017.9
20260902015331 80 147 1.0 5.0 0.00 0.00 0.00 68 1017.8
20260902014822 80 168 3.0 6.0 0.00 0.00 0.00 68 1017.7
20260902014314 80 138 2.0 6.0 0.00 0.00 0.00 68 1017.7
20260902013826 80 142 1.0 4.0 0.00 0.00 0.00 68 1017.8
20260902013319 80 40 1.0 4.0 0.00 0.00 0.00 68 1017.8
20260902012830 80 146 1.0 4.0 0.00 0.00 0.00 68 1017.7
20260902012325 81 136 0.0 5.0 0.00 0.00 0.00 68 1017.7
20260902011817 81 153 1.0 5.0 0.00 0.00 0.00 67 1017.5
20260902011330 81 167 1.0 5.0 0.00 0.00 0.00 67 1017.5
20260902010841 81 150 1.0 5.0 0.00 0.00 0.00 67 1017.5
20260902010329 82 132 1.0 11.0 0.00 0.00 0.00 66 1017.5
20260902005840 81 144 5.0 11.0 0.00 0.00 0.00 66 1017.2
20260902005330 81 65 2.0 7.0 0.00 0.00 0.00 67 1017.1
20260902004822 81 160 3.0 6.0 0.00 0.00 0.00 67 1017.1
20260902004313 81 13 2.0 8.0 0.00 0.00 0.00 67 1017.1
20260902003846 81 99 4.0 8.0 0.00 0.00 0.00 67 1017.0
20260902003321 81 80 1.0 4.0 0.00 0.00 0.00 68 1017.0
20260902002832 81 70 2.0 5.0 0.00 0.00 0.00 68 1017.0
20260902002325 82 103 2.0 7.0 0.00 0.00 0.00 67 1016.9
20260902001817 82 119 3.0 10.0 0.00 0.00 0.00 66 1016.9
20260902001328 82 137 3.0 17.0 0.00 0.00 0.00 66 1016.9
20260902000840 82 294 7.0 14.0 0.00 0.00 0.00 67 1016.8
20260902000331 82 360 4.0 11.0 0.00 0.00 0.00 68 1016.7
20260901235820 82 9 2.0 8.0 0.00 0.00 0.00 68 1016.7
20260901235332 82 246 3.0 8.0 0.00 0.00 0.00 69 1016.6
20260901234844 82 88 3.0 7.0 0.00 0.00 0.00 68 1016.6
20260901234318 82 129 1.0 3.0 0.00 0.00 0.00 69 1016.6
20260901233830 83 296 1.0 4.0 0.00 0.00 0.00 69 1016.7
20260901233322 83 58 1.0 5.0 0.00 0.00 0.00 68 1016.7
20260901232813 83 190 1.0 8.0 0.00 0.00 0.00 68 1016.8
20260901232346 83 144 3.0 8.0 0.00 0.00 0.00 67 1016.8
20260901231816 84 274 1.0 5.0 0.00 0.00 0.00 69 1016.8
20260901231328 84 49 1.0 3.0 0.00 0.00 0.00 68 1016.7
20260901230841 84 125 1.0 6.0 0.00 0.00 0.00 68 1016.7
20260901230332 84 132 2.0 6.0 0.00 0.00 0.00 67 1016.7
20260901225827 85 101 2.0 4.0 0.00 0.00 0.00 68 1016.7
20260901225319 85 149 2.0 5.0 0.00 0.00 0.00 68 1016.7
20260901224830 85 85 2.0 4.0 0.00 0.00 0.00 68 1016.7
20260901224322 85 109 1.0 6.0 0.00 0.00 0.00 68 1016.8
20260901223814 85 309 2.0 6.0 0.00 0.00 0.00 67 1016.7
20260901223347 85 35 3.0 8.0 0.00 0.00 0.00 68 1016.8
20260901222818 85 298 1.0 8.0 0.00 0.00 0.00 67 1016.8
20260901222330 85 292 2.0 4.0 0.00 0.00 0.00 67 1016.8
20260901221842 85 126 1.0 5.0 0.00 0.00 0.00 66 1016.8
20260901221353 85 103 1.0 6.0 0.00 0.00 0.00 65 1016.8
20260901220828 86 126 2.0 6.0 0.00 0.00 0.00 65 1016.8
20260901220320 86 132 2.0 8.0 0.00 0.00 0.00 65 1016.8
20260901215832 86 127 3.0 8.0 0.00 0.00 0.00 65 1016.8
20260901215323 86 246 2.0 7.0 0.00 0.00 0.00 66 1016.8
20260901214815 86 172 2.0 7.0 0.00 0.00 0.00 65 1016.8
20260901214347 87 144 2.0 9.0 0.00 0.00 0.00 65 1016.7
20260901213820 87 144 1.0 9.0 0.00 0.00 0.00 64 1016.7
20260901213332 88 135 2.0 7.0 0.00 0.00 0.00 65 1016.6
20260901212824 88 114 2.0 7.0 0.00 0.00 0.00 64 1016.6
20260901212320 88 303 2.0 10.0 0.00 0.00 0.00 64 1016.6
20260901211832 88 101 4.0 10.0 0.00 0.00 0.00 64 1016.7
20260901211324 88 237 3.0 8.0 0.00 0.00 0.00 65 1016.7
20260901210816 87 94 5.0 9.0 0.00 0.00 0.00 65 1016.8
20260901210328 87 161 3.0 9.0 0.00 0.00 0.00 65 1016.8
20260901205819 87 123 3.0 10.0 0.00 0.00 0.00 65 1016.7
20260901205332 87 306 4.0 11.0 0.00 0.00 0.00 64 1016.7
20260901204823 87 74 3.0 9.0 0.00 0.00 0.00 65 1016.7